Hourly Data Report for August 24, 2018

TORONTO CITY
ONTARIO
Current Station Operator: ECCC - MSC

43°40'00.000" N
79°24'00.000" W
112.50 m
6158355
71508
XTO

Download Data

Hourly Data (August 2018)
Hourly Data Report for August 24, 2018
TIME
LST
Temp Definition
°C
Dew Point Definition
°C
Rel Hum Definition
%
Precip. Amount Definition
mm

Wind Dir Definition
10's deg

Wind Spd Definition
km/h
Visibility Definition
km
Stn Press Definition
kPa
Hmdx Definition


Wind Chill Definition


Weather Definition


00:00 20.5 11.4 56 0.0 LegendMM LegendMM   100.52     LegendNANA
01:00 20.0 13.7 67 0.0 LegendMM LegendMM   100.53     LegendNANA
02:00 19.1 14.1 73 0.0 LegendMM LegendMM   100.55     LegendNANA
03:00 18.2 13.4 74 0.0 LegendMM LegendMM   100.55     LegendNANA
04:00 17.1 13.6 80 0.0 LegendMM LegendMM   100.57     LegendNANA
05:00 17.5 14.0 80 0.0 LegendMM LegendMM   100.60     LegendNANA
06:00 17.0 14.1 83 0.0 LegendMM LegendMM   100.63     LegendNANA
07:00 19.0 14.0 73 0.0 LegendMM LegendMM   100.66     LegendNANA
08:00 20.4 13.5 65 0.0 LegendMM LegendMM   100.72     LegendNANA
09:00 21.8 14.7 64 0.0 LegendMM LegendMM   100.78 26   LegendNANA
10:00 23.5 14.5 57 0.0 LegendMM LegendMM   100.83 27   LegendNANA
11:00 24.2 14.5 55 0.0 LegendMM LegendMM   100.84 28   LegendNANA
12:00 25.2 13.0 47 0.0 LegendMM LegendMM   100.83 28   LegendNANA
13:00 26.3 13.2 44 0.0 LegendMM LegendMM   100.79 29   LegendNANA
14:00 26.3 13.6 46 0.0 LegendMM LegendMM   100.74 29   LegendNANA
15:00 26.2 14.8 50 0.0 LegendMM LegendMM   100.69 30   LegendNANA
16:00 25.5 12.3 44 0.0 LegendMM LegendMM   100.65 28   LegendNANA
17:00 25.0 11.1 42 0.0 LegendMM LegendMM   100.65 27   LegendNANA
18:00 24.4 11.1 43 0.0 LegendMM LegendMM   100.63 26   LegendNANA
19:00 23.9 10.6 43 0.0 LegendMM LegendMM   100.63 25   LegendNANA
20:00 22.6 11.6 50 0.0 LegendMM LegendMM   100.63 25   LegendNANA
21:00 23.0 11.4 48 0.0 LegendMM LegendMM   100.65 25   LegendNANA
22:00 22.7 16.6 68 0.0 LegendMM LegendMM   100.64 28   LegendNANA
23:00 22.4 16.5 69 0.0 LegendMM LegendMM   100.65 27   LegendNANA

Notes on Data Quality.

Legend

  • E = Estimated
  • M = Missing
  • NA = Not Available*
  • [empty] = Indicates an unobserved value
Date modified: